TOURFACTS.DK  
Stats and Facts from Tour de France.

Tour de France 2018 starts in 203 days
  Riders   Stages   Teams   Summits   Yearly  


 
Search by year

 2017 - St. 21:  14824 starters.
  5132 different riders.
  635 teams.
  2232 stages.
  454 restdays.
  439589.60 km.
  5653 abandonnees.


Top 3
Christopher Froome86:20:55
Rigoberto Uran86:21:49
Romain Bardet86:23:15
Warren Barguil169 pt.
Primoz Roglic80 pt.
Thomas De Gendt64 pt.
Michael Matthews359 pt.
André Greipel234 pt.
Edvald Boasson Hagen220 pt.
Simon Yates86:27:09
Louis Meintjes86:29:15
Emanuel Buchmann86:54:16
Facts from Tour de France 1938
  |   Stages.  |   Stage winners.  |   Days in yellow  |   Average speed.  |   Route.  |   Teams.  |   All riders.  |   Rookies.  |   Withdrawls.  |  

  |   GC.  |   Polka  |   Green  |   White  |   Summits. (In tour)  |   Summits. (Points)  |   Miscellaneous.  |  

Stage 11 on 17 - 07 - 1938
         Owning:    Félicien Vervaecke    
Pick a stage:  1 2 3 4a 4b 4c 5 6a 6b 7 8 9 10a 10b 10c 11 12 13 14 15 16 17a 17b 18 19 20a 20b 20c 21
  MontpellierMarseille | Dist: 223.00 km.

Average speed for all riders in stage:  31,980 km./hr.
    Place:Name:Team:Time:Km/h:
ITAGino BartaliITAItaly06:52:10  +  00:00:00=32,463 
BELFélicien VervaeckeBELBelgium06:52:10  +  00:00:00=32,463 
FRAAndré LeducqFRACadets06:52:10  +  00:00:00=32,463 
4 FRAAntonin MagneFRAFrance06:52:10  +  00:00:00=32,463 
5 ITAVasco BergamaschiITAItaly06:52:10  +  00:00:00=32,463 
6 FRAYvan MarieFRACadets06:52:10  +  00:00:00=32,463 
7 ITAMario ViciniITAItaly06:52:10  +  00:00:00=32,463 
8 BELFrançois NeuvilleBELBelgium06:52:10  +  00:00:00=32,463 
9 FRAPierre ClemensLUXLuxembourg06:52:10  +  00:00:00=32,463 
10 FRAMathias ClemensLUXLuxembourg06:52:10  +  00:00:00=32,463 
11 NEDTheo MiddelkampNLDHolland06:52:10  +  00:00:00=32,463 
12 FRAPierre GallienFRAFrance06:52:10  +  00:00:00=32,463 
13 FRAJean FréchautFRAFrance06:52:10  +  00:00:00=32,463 
14 ESPRafael RamosESPSpain06:52:10  +  00:00:00=32,463 
15 ESPJulián BerrenderoESPSpain06:52:10  +  00:00:00=32,463 
16 SUIRaymond LouviotFRACadets06:52:10  +  00:00:00=32,463 
17 FRAFabien GalateauFRACadets06:52:10  +  00:00:00=32,463 
18 ITADante GianelloFRABluets06:52:10  +  00:00:00=32,463 
19 BELJules LowieBELBelgium06:52:10  +  00:00:00=32,463 
20 FRAVictor CossonFRAFrance06:54:01  +  00:01:51=32,318 
21 FRAAuguste MalletFRAFrance06:54:10  +  00:02:00=32,306 
22 FRARobert TanneveauFRACadets06:54:10  +  00:02:00=32,306 
23 FRAPierre JaminetFRAFrance06:55:36  +  00:03:26=32,194 
24 NEDAntoon Van SchendelNLDHolland06:55:36  +  00:03:26=32,194 
25 ITAAldo BiniITAItaly06:55:58  +  00:03:48=32,166 
26 ITAGiuseppe MartanoITAItaly06:55:58  +  00:03:48=32,166 
27 ITAEnrico MolloITAItaly06:55:58  +  00:03:48=32,166 
28 FRARaymond PassatFRACadets06:55:58  +  00:03:48=32,166 
29 BELEdward VissersBELBelgium06:55:58  +  00:03:48=32,166 
30 BELMarcel KintBELBelgium06:55:58  +  00:03:48=32,166 
31 BELAlbertin DisseauxBELBelgium06:55:58  +  00:03:48=32,166 
32 FRAAlbert BourlonFRABluets06:55:58  +  00:03:48=32,166 
33 ESPMariano CañardoESPSpain06:55:58  +  00:03:48=32,166 
34 FRAMarcel LaurentFRAFrance06:55:58  +  00:03:48=32,166 
35 ITALuigi IntrozziITAItaly06:55:58  +  00:03:48=32,166 
36 ESPJacques AlzineESPSpain06:56:18  +  00:04:08=32,140 
37 GEROtto WeckerlingDEUGermany06:57:43  +  00:05:33=32,031 
38 SUIEdgar HehlenCHESwitzerland06:58:25  +  00:06:15=31,978 
39 SUIPaul EgliCHESwitzerland06:58:25  +  00:06:15=31,978 
40 BELEmile Masson jr.BELBelgium06:59:41  +  00:07:31=31,881 
41 BELSylvère MaesBELBelgium06:59:41  +  00:07:31=31,881 
42 ITANello TroggiITAItaly06:59:41  +  00:07:31=31,881 
43 ITAGlauco ServadeiITAItaly06:59:41  +  00:07:31=31,881 
44 ITAOreste BernardoniFRABluets06:59:41  +  00:07:31=31,881 
45 FRARobert OubronFRACadets06:59:41  +  00:07:31=31,881 
46 LUXJean MajerusLUXLuxembourg06:59:41  +  00:07:31=31,881 
47 LUXFrançois NeuensLUXLuxembourg06:59:41  +  00:07:31=31,881 
48 FRAJean FontenayFRACadets06:59:41  +  00:07:31=31,881 
49 LUXArsène MerschLUXLuxembourg06:59:41  +  00:07:31=31,881 
50 BELRene WalschotBELBelgium06:59:41  +  00:07:31=31,881 
51 BELConstant LauwersBELBelgium06:59:41  +  00:07:31=31,881 
52 GERJosef ArentsDEUGermany06:59:41  +  00:07:31=31,881 
53 GERKarl HeideDEUGermany07:02:10  +  00:10:00=31,694 
54 FRAGeorges NaisseFRAFrance07:03:46  +  00:11:36=31,574 
55 FRAJean-Marie GoasmatFRAFrance07:03:46  +  00:11:36=31,574 
56 FRAJoseph GoutorbeFRABluets07:03:46  +  00:11:36=31,574 
57 BELÉloi MeulenbergBELBelgium07:03:46  +  00:11:36=31,574 
58 SUIBruno CariniFRACadets07:04:04  +  00:11:54=31,552 
59 SUIAlbert KnuttiCHESwitzerland07:04:44  +  00:12:34=31,502 
60 GERReinhold WendelDEUGermany07:04:55  +  00:12:45=31,489 
61 FRALucien Le GuevelFRABluets07:06:28  +  00:14:18=31,374 
62 GERHerbert HauswaldDEUGermany07:06:28  +  00:14:18=31,374 
63 FRACamille LeroyFRABluets07:06:28  +  00:14:18=31,374 
64 ITAGiordano CotturITAItaly07:06:38  +  00:14:28=31,362 
65 FRAGaston GrimbertFRABluets07:08:10  +  00:16:00=31,250 
66 ITAPierre SpaperiFRABluets07:08:18  +  00:16:08=31,240 
67 NEDJanus HellemonsNLDHolland07:12:57  +  00:20:47=30,904 
68 FRARaoul LesueurFRACadets07:13:53  +  00:21:43=30,838 
69 FRAJules RossiITAItaly07:21:32  +  00:29:22=30,303 

Withdrawls: 3
 
Rider
Team
Reason
23  ITASettimo SimoniniITAItalyDid not finish
58  SUITheo PerretCHESwitzerlandDid not finish
72  LUXChristophe DidierLUXLuxembourgDid not finish

Todays birthdays.

1874  Henri Timmermann
1877  Gustave Guillarme
1886  Guillaume Nyssen
1892  Albert Cartigny
1913  Arsène Mersch
1919  Jean Breuer
1927  Alfred Kain
1930  Edgard Sorgeloos
1937  Frans De Mulder
1960  Jacques Hanegraaf
1986  Andrey Zeits